Watonga, OK

8:29 PM CST on February 25, 2017 (GMT -0600)
Watonga

Weather History for KJWG - February, 2014

Change the Weather History Date:

Sunday, February 23, 2014

  Actual Average Record
Temperature  
Mean Temperature 38 °F -  
Max Temperature 48 °F 55 °F 82 °F (2017)
Min Temperature 29 °F 30 °F 12 °F (1965)
Degree Days  
Heating Degree Days 26    
Moisture  
Dew Point 27 °F    
Average Humidity 66    
Maximum Humidity 94    
Minimum Humidity 40    
Precipitation  
Precipitation 0.00 in - - ()
Sea Level Pressure  
Sea Level Pressure 30.10 in    
Wind  
Wind Speed 14 mph (NNE)    
Max Wind Speed 24 mph    
Max Gust Speed 31 mph    
Visibility 10 miles    
Events      
Averages and records for this station are not official NWS values.
T = Trace of Precipitation, MM = Missing Value Source: NWS Daily Summary

Daily Weather History Graph

Daily Weather History Graph

Search for Another Location

Airport or City:

Trip Planner

Search our weather history database for the weather conditions in past years. The results will help you decide how hot, cold, wet, or windy it might be!

Date:

Astronomy

Feb. 23, 2014 Rise Set
Actual Time 7:11 AM CST 6:23 PM CST
Civil Twilight 6:45 AM CST 6:49 PM CST
Nautical Twilight 6:15 AM CST 7:18 PM CST
Astronomical Twilight 5:46 AM CST 7:48 PM CST
Moon 2:05 AM CST (2/23) 12:32 PM CST (2/23)
Length of Visible Light 12h 03m
Length of Day
11h 11m
Last Quarter, 38% of the Moon is Illuminated
Feb 23
Last Quarter
Mar 1
New
Mar 8
First Quarter
Mar 16
Full
Mar 23
Last Quarter

Hourly Weather History & Observations

Time (CST) Temp. Windchill Dew Point Humidity Pressure Visibility Wind Dir Wind Speed Gust Speed Precip Events Conditions
12:15 AM 38.5 °F 33.4 °F 30.7 °F 74% 29.88 in 10.0 mi NNE 6.9 mph - N/A   Clear
12:35 AM 36.7 °F 31.2 °F 30.0 °F 77% 29.89 in 10.0 mi North 6.9 mph - N/A   Clear
12:55 AM 36.3 °F 30.8 °F 30.4 °F 79% 29.90 in 10.0 mi North 6.9 mph - N/A   Clear
1:15 AM 37.9 °F 32.1 °F 30.2 °F 74% 29.90 in 10.0 mi NNE 8.1 mph - N/A   Clear
1:35 AM 39.4 °F 33.2 °F 31.1 °F 72% 29.89 in 10.0 mi NNE 9.2 mph - N/A   Clear
1:55 AM 40.1 °F 34.1 °F 31.1 °F 70% 29.90 in 10.0 mi North 9.2 mph - N/A   Clear
2:15 AM 39.4 °F 31.1 °F 30.7 °F 71% 29.90 in 10.0 mi North 15.0 mph - N/A   Clear
2:35 AM 39.9 °F 31.1 °F 30.7 °F 70% 29.91 in 10.0 mi North 17.3 mph 23.0 mph N/A   Clear
2:55 AM 39.6 °F 30.3 °F 30.2 °F 69% 29.90 in 10.0 mi North 18.4 mph - N/A   Clear
3:15 AM 38.5 °F 28.6 °F 29.7 °F 71% 29.91 in 10.0 mi North 19.6 mph 25.3 mph N/A   Clear
3:35 AM 36.7 °F 26.0 °F 30.7 °F 79% 29.92 in 10.0 mi North 20.7 mph 25.3 mph N/A   Clear
3:55 AM 35.6 °F 24.8 °F 32.0 °F 87% 29.94 in 10.0 mi North 19.6 mph 24.2 mph N/A   Clear
4:15 AM 35.1 °F 24.5 °F 32.5 °F 91% 29.95 in 10.0 mi North 18.4 mph 26.5 mph N/A   Clear
4:35 AM 34.7 °F 22.8 °F 32.4 °F 91% 29.95 in 10.0 mi North 23.0 mph 28.8 mph N/A   Clear
4:55 AM 33.4 °F 22.0 °F 31.8 °F 94% 29.97 in 10.0 mi North 19.6 mph 28.8 mph N/A   Clear
5:15 AM 32.7 °F 20.4 °F 30.7 °F 92% 29.99 in 10.0 mi North 21.9 mph 29.9 mph N/A   Clear
5:35 AM 32.0 °F 19.5 °F 29.1 °F 89% 30.00 in 10.0 mi North 21.9 mph 27.6 mph N/A   Clear
5:55 AM 31.8 °F 20.2 °F 28.4 °F 87% 30.02 in 10.0 mi North 18.4 mph - N/A   Clear
6:15 AM 31.1 °F 19.7 °F 28.4 °F 90% 30.03 in 10.0 mi North 17.3 mph 21.9 mph N/A   Clear
6:35 AM 30.6 °F 19.4 °F 28.0 °F 90% 30.04 in 10.0 mi North 16.1 mph - N/A   Clear
6:55 AM 30.2 °F 18.5 °F 27.9 °F 91% 30.05 in 10.0 mi North 17.3 mph 20.7 mph N/A   Clear
7:15 AM 29.8 °F 17.7 °F 27.5 °F 91% 30.07 in 10.0 mi North 18.4 mph 21.9 mph N/A   Clear
7:35 AM 29.5 °F 18.4 °F 27.1 °F 91% 30.08 in 10.0 mi North 15.0 mph - N/A   Clear
7:55 AM 30.2 °F 18.5 °F 27.0 °F 88% 30.09 in 10.0 mi North 17.3 mph 23.0 mph N/A   Clear
8:15 AM 31.1 °F 20.1 °F 26.8 °F 84% 30.11 in 10.0 mi North 16.1 mph 20.7 mph N/A   Clear
8:35 AM 32.0 °F 20.1 °F 26.4 °F 80% 30.12 in 10.0 mi North 19.6 mph 25.3 mph N/A   Clear
8:55 AM 32.4 °F 20.9 °F 26.1 °F 78% 30.13 in 10.0 mi North 18.4 mph 24.2 mph N/A   Clear
9:15 AM 33.6 °F 21.6 °F 25.9 °F 73% 30.13 in 10.0 mi North 21.9 mph 27.6 mph N/A   Clear
9:35 AM 34.2 °F 22.3 °F 25.5 °F 71% 30.14 in 10.0 mi North 21.9 mph 25.3 mph N/A   Clear
9:55 AM 35.6 °F 25.2 °F 25.5 °F 67% 30.14 in 10.0 mi North 18.4 mph 25.3 mph N/A   Clear
10:15 AM 36.1 °F 26.2 °F 25.5 °F 65% 30.15 in 10.0 mi North 17.3 mph 23.0 mph N/A   Clear
10:35 AM 37.4 °F 26.4 °F 25.0 °F 61% 30.16 in 10.0 mi North 23.0 mph - N/A   Clear
10:55 AM 39.0 °F 28.8 °F 25.3 °F 58% 30.16 in 10.0 mi NNE 21.9 mph 27.6 mph N/A   Clear
11:15 AM 40.1 °F 30.2 °F 25.0 °F 55% 30.16 in 10.0 mi North 21.9 mph 27.6 mph N/A   Clear
11:35 AM 41.2 °F 31.9 °F 25.3 °F 53% 30.17 in 10.0 mi NNE 20.7 mph 26.5 mph N/A   Clear
11:55 AM 42.1 °F 33.1 °F 25.2 °F 51% 30.17 in 10.0 mi North 20.7 mph 29.9 mph N/A   Clear
12:15 PM 42.8 °F 34.0 °F 25.0 °F 49% 30.17 in 10.0 mi NNE 20.7 mph 25.3 mph N/A   Clear
12:35 PM 44.1 °F 35.0 °F 25.2 °F 47% 30.17 in 10.0 mi North 24.2 mph 27.6 mph N/A   Clear
12:55 PM 44.6 °F 36.1 °F 25.0 °F 46% 30.17 in 10.0 mi NNE 21.9 mph 28.8 mph N/A   Clear
1:15 PM 45.5 °F 37.3 °F 25.0 °F 45% 30.17 in 10.0 mi NNE 21.9 mph 31.1 mph N/A   Clear
1:35 PM 46.4 °F 39.0 °F 25.2 °F 43% 30.16 in 10.0 mi North 19.6 mph 25.3 mph N/A   Clear
1:55 PM 46.4 °F 39.0 °F 25.0 °F 43% 30.17 in 10.0 mi NNE 19.6 mph 26.5 mph N/A   Clear
2:15 PM 46.9 °F - 25.3 °F 43% 30.16 in 10.0 mi North 18.4 mph 25.3 mph N/A   Clear
2:35 PM 47.3 °F - 25.2 °F 42% 30.16 in 10.0 mi North 19.6 mph 24.2 mph N/A   Clear
2:55 PM 47.7 °F - 25.2 °F 41% 30.16 in 10.0 mi North 16.1 mph 23.0 mph N/A   Clear
3:15 PM 47.3 °F - 24.8 °F 41% 30.16 in 10.0 mi North 18.4 mph 24.2 mph N/A   Clear
3:35 PM 47.8 °F - 25.2 °F 41% 30.16 in 10.0 mi NNE 16.1 mph 23.0 mph N/A   Clear
3:55 PM 47.8 °F - 24.8 °F 41% 30.16 in 10.0 mi NNE 13.8 mph - N/A   Clear
4:15 PM 48.2 °F - 25.0 °F 40% 30.16 in 10.0 mi NNE 11.5 mph 17.3 mph N/A   Clear
4:35 PM 47.1 °F - 24.6 °F 41% 30.16 in 10.0 mi NNE 12.7 mph - N/A   Clear
4:55 PM 47.3 °F - 25.0 °F 42% 30.16 in 10.0 mi NNE 13.8 mph 19.6 mph N/A   Clear
5:15 PM 46.6 °F - 24.8 °F 43% 30.17 in 10.0 mi NNE 13.8 mph 19.6 mph N/A   Clear
5:35 PM 45.9 °F 39.7 °F 24.6 °F 43% 30.17 in 10.0 mi NNE 13.8 mph - N/A   Clear
5:55 PM 44.2 °F 38.8 °F 24.3 °F 45% 30.17 in 10.0 mi NNE 10.4 mph - N/A   Clear
6:15 PM 41.9 °F 36.9 °F 24.6 °F 50% 30.18 in 10.0 mi NNE 8.1 mph - N/A   Clear
6:35 PM 39.7 °F 34.3 °F 24.4 °F 54% 30.18 in 10.0 mi NNE 8.1 mph - N/A   Clear
6:55 PM 37.8 °F 31.8 °F 24.6 °F 59% 30.19 in 10.0 mi NNE 8.1 mph - N/A   Clear
7:15 PM 36.9 °F 31.4 °F 24.8 °F 62% 30.20 in 10.0 mi NNE 6.9 mph - N/A   Clear
7:35 PM 36.5 °F 30.3 °F 25.0 °F 63% 30.20 in 10.0 mi NNE 8.1 mph - N/A   Clear
7:55 PM 35.1 °F 28.6 °F 24.6 °F 66% 30.20 in 10.0 mi North 8.1 mph - N/A   Clear
8:15 PM 35.4 °F 28.4 °F 25.7 °F 68% 30.21 in 10.0 mi North 9.2 mph - N/A   Clear
8:35 PM 37.0 °F 29.8 °F 26.1 °F 65% 30.21 in 10.0 mi NNE 10.4 mph - N/A   Clear
8:55 PM 36.5 °F 28.7 °F 25.7 °F 65% 30.21 in 10.0 mi NNE 11.5 mph - N/A   Clear
9:15 PM 35.4 °F 27.8 °F 25.7 °F 68% 30.22 in 10.0 mi NNE 10.4 mph - N/A   Clear
9:35 PM 34.7 °F 25.9 °F 25.7 °F 70% 30.21 in 10.0 mi NNE 12.7 mph - N/A   Clear
9:55 PM 34.3 °F 25.5 °F 25.7 °F 71% 30.21 in 10.0 mi NNE 12.7 mph - N/A   Clear
10:15 PM 33.4 °F 23.9 °F 25.7 °F 73% 30.21 in 10.0 mi NNE 13.8 mph - N/A   Clear
10:35 PM 32.7 °F 23.4 °F 25.5 °F 75% 30.21 in 10.0 mi NNE 12.7 mph - N/A   Clear
10:55 PM 32.0 °F 24.2 °F 25.2 °F 76% 30.22 in 10.0 mi NNE 9.2 mph - N/A   Clear
11:15 PM 30.7 °F 23.3 °F 24.6 °F 78% 30.23 in 10.0 mi NNE 8.1 mph - N/A   Clear
11:35 PM 30.4 °F 22.9 °F 24.4 °F 79% 30.23 in 10.0 mi NNE 8.1 mph - N/A   Clear
11:55 PM 29.5 °F 23.4 °F 24.1 °F 80% 30.23 in 10.0 mi NNE 5.8 mph - N/A   Clear